Flag for Greece Weather past 2 weeks in Rhodes, Rhodes, Greece

Now
84 °F

Scattered clouds.


Feels Like: 91 °F
Forecast: 76 / 83 °F
Wind: 13 mph from West

Location: Rhodes Airport

Current Time: Aug 1, 2014 at 5:23:31 PM

Latest Report: Aug 1, 2014 at 4:50 PM


Visibility: N/A

Pressure: 29.65 "Hg

Humidity: 70%

Dew point: 73 °F

Location of RhodesLocation

Historic Weather in Rhodes — Graph

°F

Rhodes temperature yesterday

Maximum temperature yesterday: 91 °F (at 2:50 PM)
Minimum temperature yesterday: 79 °F (at 2:20 AM)
Average temperature yesterday: 84 °F

Past Weeks' High & Low Weather Summary

 TemperatureHumidityPressure
High91 °F (Jul 31, 2:50 PM)89% (Jul 23, 5:50 AM)29.86 "Hg (Jul 23, 5:50 AM)
Low73 °F (Jul 19, 1:50 AM)42% (Jul 22, 5:20 AM)29.62 "Hg (Jul 21, 3:50 AM)
Average81 °F70%29.71 "Hg
* Reported Jul 17 3:20 PM — Aug 1 3:50 PM, Rhodes, Weather by CustomWeather, © 2014

Note: Actual official high and low records may vary slightly from our data, if they occured in-between our weather recording intervals... More about our weather records

Advertising

Rhodes weather history for previous 24 hours

 ConditionsComfort  
Time TempWeatherWind HumidityBarometerVisibility
3:50 PM
Aug 1
84 °FPassing clouds.12 mph70%29.68 "HgN/A
3:20 PM84 °FPassing clouds.12 mph70%29.68 "HgN/A
2:50 PM84 °FPassing clouds.12 mph70%29.68 "HgN/A
2:20 PM84 °FPassing clouds.14 mph66%29.68 "HgN/A
1:50 PM84 °FPassing clouds.14 mph66%29.68 "HgN/A
1:20 PM84 °FPassing clouds.14 mph66%29.65 "HgN/A
12:50 PM84 °FPassing clouds.14 mph66%29.65 "HgN/A
12:20 PM82 °FPassing clouds.14 mph70%29.65 "HgN/A
11:50 AM82 °FPassing clouds.14 mph70%29.65 "HgN/A
11:20 AM82 °FPassing clouds.13 mph70%29.65 "HgN/A
10:50 AM82 °FPassing clouds.13 mph70%29.65 "HgN/A
10:20 AM81 °FPassing clouds.15 mph74%29.65 "HgN/A
9:50 AM81 °FPassing clouds.15 mph74%29.65 "HgN/A
9:20 AM81 °FSunny.10 mph74%29.62 "Hg10 mi
8:50 AM81 °FSunny.10 mph74%29.62 "Hg10 mi
8:20 AM79 °FSunny.6 mph70%29.62 "Hg10 mi
7:50 AM79 °FSunny.6 mph70%29.62 "Hg10 mi
7:20 AM77 °FSunny.7 mph74%29.62 "Hg10 mi
6:50 AM77 °FClear.7 mph74%29.62 "Hg10 mi
6:20 AM77 °FClear.5 mph74%29.65 "Hg10 mi
5:50 AM77 °FClear.8 mph74%29.65 "Hg10 mi
5:20 AM79 °FClear.6 mph70%29.62 "Hg10 mi
4:50 AM79 °FClear.6 mph70%29.62 "Hg10 mi
4:20 AM79 °FClear.6 mph65%29.65 "Hg10 mi
3:50 AM79 °FClear.3 mph65%29.65 "Hg10 mi
3:20 AM79 °FClear.No wind65%29.65 "Hg10 mi
2:50 AM79 °FClear.No wind65%29.65 "Hg10 mi
2:20 AM79 °FClear.3 mph65%29.65 "Hg10 mi
1:50 AM79 °FClear.No wind65%29.65 "Hg10 mi
1:20 AM79 °FClear.2 mph65%29.65 "Hg10 mi
12:50 AM79 °FClear.3 mph65%29.65 "Hg10 mi
12:20 AM79 °FClear.No wind61%29.65 "Hg10 mi
11:50 PM
Jul 31
79 °FClear.No wind61%29.65 "Hg10 mi
11:20 PM81 °FClear.No wind70%29.65 "Hg10 mi
10:50 PM81 °FClear.6 mph70%29.65 "Hg10 mi
10:20 PM81 °FClear.8 mph70%29.65 "Hg10 mi
9:50 PM81 °FClear.8 mph70%29.65 "Hg10 mi
9:20 PM82 °FClear.8 mph66%29.65 "Hg10 mi
8:50 PM82 °FSunny.8 mph66%29.65 "Hg10 mi
8:20 PM86 °FSunny.12 mph59%29.65 "Hg10 mi
7:50 PM86 °FSunny.12 mph59%29.65 "Hg10 mi
7:20 PM88 °FSunny.13 mph59%29.65 "Hg10 mi
6:50 PM88 °FSunny.13 mph59%29.65 "Hg10 mi
6:20 PM88 °FSunny.14 mph59%29.65 "Hg10 mi
5:50 PM88 °FSunny.14 mph59%29.65 "Hg10 mi
5:20 PM91 °FSunny.12 mph46%29.65 "Hg10 mi
Weather by CustomWeather, © 2014

See weather overviewHow to use our weather pages